Showing default

OPS 9341 (IDSCS 19), 3284

Orbit data source: Space-Track

OPS 9341 (IDSCS 19), 3284 is a payload satellite owned by SAMSO (US) in GEO that was launched on Thu, 13 Jun 1968 UTC via a TITAN IIIC launch vehicle from the Air Force Eastern Test Range (AFETR). Payload-class satellites include a variety of spacecraft equipped with specific instruments for various scientific and technological missions. These include communications satellites like Starlink; space stations such as the ISS; scientific satellites like the Hubble; Earth observation satellites from companies like Planet Labs, Umbra, and HawkEye 360; GPS; miniature CubeSats for education and research; and military/defense satellites.

Not visible in the next 10 days
Identifier
3284, 1968-050A
Orbit
GEO
Country
Flag of USUS
Related business
Manufacturer
Philco-Ford
Mission
Non-operational spacecraft
Bus & Motor
IDCSP, Unknown motor
Mass
45 kg wet, 45 kg dry
Launch date (UTC)
1968-06-13 (57 years ago)
Launch vehicle
TITAN IIIC
Launch site
Air Force Eastern Test Range (AFETR)
Object type
Payload
Rocket body
Debris
Shape & HBR
Unknown
Radar Cross Section
Medium (>0.1 m² and <1 m²)

Expand to show TLE details & history
Last TLE update: 1 day ago

TLE from 1 day ago
0 OPS 9341 (IDSCS 19)
1 03284U 68050A   25291.12140197 -.00000066  00000-0  00000-0 0  9993
2 03284   6.7173  53.8922 0015294 149.6270 205.3447  1.07853773 47593
Epoch: 2025-10-18T02:54Z
TLE epoch observation values (Epoch: 2025-10-18T02:54:49.130Z)
Latitude
-0.59837°
Longitude
-21.75879°
Altitude
33,841.955 km
Speed
3.146 km/s
True Right ascension
03h 15m 12s
True Declination
0° 35' 52"
Sunlit
Object was in daylight at epoch
Visualization orbit readout
Latitude
Unknown
Longitude
Unknown
Altitude
Unknown
Speed
Unknown
Apparent Right ascension
Unknown
Apparent Declination
Unknown
Sunlit
N/A
Visualization observer readout
Local Sidereal Time
04:43:00
Azimuth
Unknown
Elevation
Unknown
Doppler factor
Unknown
Orbital elements
Apogee altitude
33,849.13 km
Perigee altitude
33,726.271 km
Semi-major axis
40,165.837 km
Eccentricity
0.00153
Inclination
6.7173°
RAAN
53.8922°
Arg. of periapsis
149.627°
True anomaly
205.26981°
Mean anomaly
205.3447°
Eccentric anomaly
205.30724°
Mean motion
0.26962 °/min
Orbital period
1,335.19 mins
BSTAR
0
Loading maneuver chart data...
Computing Atmospheric mass density...
Loading historical data...
Loading historical data...
Loading historical data...
Loading historical data...
Loading historical data...
Loading historical data...
Loading historical data...

Documentation

Showing up to 5 results
|